WBANNO,USDM_WEEK,LONGITUDE,LATITUDE,SMVWC_5_CM_MEAN,SMANOM_5_CM_MEAN,SMPERC_5_CM_30COUNTS,SMPERC_5_CM_70COUNTS,SMVWC_10_CM_MEAN,SMANOM_10_CM_MEAN,SMPERC_10_CM_30COUNTS,SMPERC_10_CM_70COUNTS,SMVWC_20_CM_MEAN,SMANOM_20_CM_MEAN,SMPERC_20_CM_30COUNTS,SMPERC_20_CM_70COUNTS,SMVWC_50_CM_MEAN,SMANOM_50_CM_MEAN,SMPERC_50_CM_30COUNTS,SMPERC_50_CM_70COUNTS,SMVWC_100_CM_MEAN,SMANOM_100_CM_MEAN,SMPERC_100_CM_30COUNTS,SMPERC_100_CM_70COUNTS,SMVWC_TOP_CM_MEAN,SMANOM_TOP_CM_MEAN,SMPERC_TOP_CM_30COUNTS,SMPERC_TOP_CM_70COUNTS,SMVWC_COLUMN_CM_MEAN,SMANOM_COLUMN_CM_MEAN,SMPERC_COLUMN_CM_30COUNTS,SMPERC_COLUMN_CM_70COUNTS
63829,20100126,-84.45,31.19,,,,,,,,,,,,,,,,,,,,,,,,,,,,
63829,20100127,-84.45,31.19,,,,,,,,,,,,,,,,,,,,,,,,,,,,
63829,20100128,-84.45,31.19,,,,,,,,,,,,,,,,,,,,,,,,,,,,
63829,20100129,-84.45,31.19,,,,,,,,,,,,,,,,,,,,,,,,,,,,
63829,20100130,-84.45,31.19,,,,,,,,,,,,,,,,,,,,,,,,,,,,
63829,20100131,-84.45,31.19,,,,,,,,,,,,,,,,,,,,,,,,,,,,
63829,20100201,-84.45,31.19,0.167,0.41,0,0.354,0.163,0.57,0,0.544,0.154,0,0.032,0.082,0.222,0.15,0,0.209,0.387,0.55,0,1,0.165,0.5,0,0.475,0.219,0.43,0,0.494
63829,20100202,-84.45,31.19,0.166,0.39,0,0.31,0.163,0.54,0,0.506,0.153,0,0.03,0.077,0.222,0.14,0,0.19,0.388,0.55,0,1,0.165,0.47,0,0.387,0.218,0.42,0,0.411
63829,20100203,-84.45,31.19,0.168,0.42,0,0.387,0.164,0.57,0,0.554,0.154,0.01,0.03,0.077,0.225,0.24,0,0.28,0.388,0.55,0,1,0.166,0.51,0,0.476,0.22,0.45,0,0.494
63829,20100204,-84.45,31.19,0.169,0.45,0,0.387,0.165,0.59,0,0.571,0.155,0.03,0.03,0.077,0.225,0.27,0,0.28,0.389,0.55,0,1,0.167,0.53,0,0.476,0.221,0.47,0,0.494
63829,20100205,-84.45,31.19,0.17,0.47,0,0.387,0.166,0.62,0,0.571,0.156,0.04,0.03,0.077,0.226,0.28,0,0.28,0.39,0.55,0,1,0.168,0.56,0,0.476,0.221,0.48,0,0.494
63829,20100206,-84.45,31.19,0.174,0.58,0,0.476,0.171,0.76,0,0.661,0.16,0.11,0,0.107,0.231,0.48,0,0.375,0.39,0.56,0,1,0.172,0.69,0,0.565,0.225,0.59,0,0.583
63829,20100207,-84.45,31.19,0.168,0.44,0,0.411,0.167,0.64,0,0.661,0.158,0.08,0,0.06,0.229,0.41,0,0.286,0.391,0.56,0,1,0.168,0.54,0,0.554,0.223,0.52,0,0.583
63829,20100208,-84.45,31.19,0.166,0.38,0,0.304,0.165,0.59,0,0.554,0.157,0.06,0,0.06,0.229,0.38,0,0.274,0.391,0.56,0,1,0.166,0.48,0,0.423,0.222,0.49,0,0.482
63829,20100209,-84.45,31.19,0.164,0.34,0,0.292,0.164,0.54,0,0.476,0.156,0.05,0,0.06,0.229,0.37,0,0.274,0.391,0.56,0,1,0.164,0.44,0,0.399,0.221,0.46,0,0.452
63829,20100210,-84.45,31.19,0.164,0.33,0,0.28,0.163,0.53,0,0.458,0.156,0.05,0,0.06,0.228,0.36,0,0.244,0.391,0.56,0,1,0.164,0.43,0,0.363,0.22,0.46,0,0.446
63829,20100211,-84.45,31.19,0.164,0.32,0,0.28,0.163,0.53,0,0.452,0.155,0.05,0,0.06,0.229,0.36,0,0.244,0.391,0.56,0,1,0.163,0.42,0,0.363,0.22,0.46,0,0.458
63829,20100212,-84.45,31.19,0.163,0.31,0,0.28,0.163,0.52,0,0.452,0.155,0.05,0,0.06,0.229,0.36,0,0.244,0.391,0.56,0,1,0.163,0.41,0,0.363,0.22,0.46,0,0.458
63829,20100213,-84.45,31.19,0.164,0.32,0,0.28,0.163,0.54,0,0.452,0.156,0.06,0,0.077,0.227,0.28,0,0.238,0.392,0.56,0,1,0.164,0.42,0,0.363,0.22,0.48,0,0.464
63829,20100214,-84.45,31.19,0.165,0.33,0,0.274,0.164,0.57,0,0.452,0.156,0.07,0,0.077,0.228,0.3,0,0.268,0.392,0.56,0,1,0.165,0.44,0,0.375,0.221,0.5,0,0.464
63829,20100215,-84.45,31.19,0.166,0.34,0,0.274,0.165,0.59,0,0.488,0.157,0.09,0,0.077,0.228,0.3,0,0.268,0.392,0.56,0,1,0.165,0.45,0,0.381,0.222,0.52,0,0.565
63829,20100216,-84.45,31.19,0.169,0.42,0,0.393,0.168,0.69,0,0.619,0.16,0.13,0,0.077,0.231,0.39,0,0.375,0.392,0.57,0,1,0.169,0.55,0,0.512,0.224,0.61,0,0.696
63829,20100217,-84.45,31.19,0.168,0.39,0,0.327,0.168,0.69,0,0.619,0.16,0.13,0,0.077,0.23,0.33,0,0.315,0.393,0.58,0,1,0.168,0.54,0,0.452,0.224,0.6,0,0.708
63829,20100218,-84.45,31.19,0.168,0.38,0,0.327,0.168,0.68,0,0.607,0.16,0.13,0,0.077,0.23,0.33,0,0.315,0.393,0.59,0,1,0.168,0.52,0,0.452,0.224,0.6,0,0.696
63829,20100219,-84.45,31.19,0.167,0.36,0,0.327,0.167,0.67,0,0.607,0.159,0.13,0,0.077,0.23,0.33,0,0.315,0.393,0.6,0,1,0.167,0.51,0,0.452,0.223,0.59,0,0.696
63829,20100220,-84.45,31.19,0.158,0.11,0.101,0.19,0.159,0.43,0,0.47,0.154,0.04,0.006,0,0.225,0.17,0,0.19,0.393,0.6,0,1,0.159,0.25,0.012,0.315,0.218,0.4,0,0.554
63829,20100221,-84.45,31.19,0.152,-0.03,0.244,0.119,0.154,0.25,0.077,0.327,0.15,-0.04,0.143,0,0.222,0.05,0,0.107,0.387,0.52,0,0.881,0.153,0.1,0.155,0.173,0.213,0.24,0.095,0.411
63829,20100222,-84.45,31.19,0.149,-0.12,0.387,0.119,0.15,0.13,0.22,0.256,0.146,-0.1,0.286,0,0.221,0.02,0,0.107,0.38,0.42,0,0.738,0.149,-0.01,0.298,0.167,0.209,0.1,0.238,0.268
63829,20100223,-84.45,31.19,0.151,-0.06,0.387,0.137,0.15,0.15,0.22,0.262,0.146,-0.1,0.292,0,0.222,0.04,0,0.119,0.375,0.33,0,0.619,0.15,0.03,0.298,0.173,0.209,0.08,0.244,0.268
63829,20100224,-84.45,31.19,0.151,-0.04,0.387,0.185,0.15,0.17,0.22,0.28,0.146,-0.1,0.292,0,0.222,0.08,0,0.143,0.37,0.26,0,0.476,0.151,0.06,0.298,0.268,0.208,0.06,0.244,0.161
63829,20100225,-84.45,31.19,0.151,-0.02,0.387,0.185,0.151,0.2,0.22,0.399,0.145,-0.1,0.292,0,0.223,0.1,0,0.143,0.366,0.2,0,0.333,0.151,0.09,0.298,0.268,0.207,0.05,0.244,0.161
63829,20100226,-84.45,31.19,0.152,0.01,0.387,0.185,0.151,0.23,0.22,0.405,0.145,-0.1,0.292,0,0.223,0.11,0,0.143,0.362,0.13,0,0.19,0.151,0.11,0.298,0.268,0.206,0.04,0.244,0.161
63829,20100227,-84.45,31.19,0.152,0.02,0.286,0.185,0.151,0.25,0.22,0.405,0.145,-0.09,0.286,0,0.223,0.12,0,0.143,0.356,0.05,0,0.048,0.151,0.13,0.286,0.268,0.205,0.01,0.244,0.161
63829,20100228,-84.45,31.19,0.152,0.04,0.143,0.185,0.151,0.28,0.143,0.405,0.145,-0.09,0.149,0,0.223,0.13,0,0.143,0.352,-0.03,0.113,0.024,0.152,0.15,0.143,0.268,0.205,0,0.286,0.161
63829,20100301,-84.45,31.19,0.152,0.06,0.107,0.185,0.151,0.3,0,0.405,0.145,-0.08,0.101,0,0.223,0.14,0,0.143,0.348,-0.09,0.256,0.024,0.152,0.18,0.036,0.268,0.204,-0.01,0.286,0.161
63829,20100302,-84.45,31.19,0.147,-0.07,0.214,0.077,0.147,0.17,0.018,0.298,0.141,-0.14,0.208,0.018,0.221,0.05,0,0.036,0.343,-0.18,0.387,0,0.147,0.04,0.143,0.161,0.2,-0.16,0.393,0.054
63829,20100303,-84.45,31.19,0.15,0.03,0.214,0.173,0.149,0.26,0.018,0.298,0.142,-0.1,0.208,0.024,0.223,0.15,0,0.155,0.341,-0.2,0.387,0,0.149,0.13,0.143,0.173,0.201,-0.09,0.393,0.167
63829,20100304,-84.45,31.19,0.151,0.06,0.214,0.232,0.149,0.31,0.018,0.321,0.143,-0.08,0.208,0.024,0.223,0.18,0,0.167,0.34,-0.2,0.387,0,0.15,0.17,0.143,0.315,0.201,-0.06,0.393,0.214
63829,20100305,-84.45,31.19,0.151,0.08,0.214,0.232,0.15,0.34,0.018,0.435,0.143,-0.06,0.208,0.024,0.224,0.2,0,0.167,0.339,-0.19,0.387,0,0.151,0.2,0.143,0.345,0.201,-0.03,0.393,0.214
63829,20100306,-84.45,31.19,0.151,0.11,0.214,0.232,0.15,0.37,0.018,0.435,0.144,-0.05,0.208,0.024,0.224,0.22,0,0.167,0.338,-0.18,0.387,0,0.151,0.22,0.143,0.345,0.201,-0.01,0.393,0.214
63829,20100307,-84.45,31.19,0.151,0.13,0.214,0.232,0.15,0.39,0.018,0.435,0.144,-0.04,0.208,0.024,0.224,0.24,0,0.167,0.339,-0.16,0.274,0,0.151,0.24,0.143,0.345,0.202,0.01,0.292,0.214
63829,20100308,-84.45,31.19,0.151,0.15,0.107,0.232,0.15,0.42,0.018,0.435,0.144,-0.03,0.113,0.024,0.224,0.25,0,0.167,0.339,-0.13,0.22,0,0.151,0.26,0.107,0.345,0.202,0.03,0.292,0.214
63829,20100309,-84.45,31.19,0.149,0.09,0,0.202,0.149,0.38,0,0.405,0.143,-0.04,0.018,0.006,0.224,0.25,0,0.155,0.339,-0.1,0.167,0,0.149,0.21,0,0.315,0.201,0,0.321,0.19
63829,20100310,-84.45,31.19,0.14,-0.1,0.03,0.06,0.141,0.16,0,0.262,0.137,-0.14,0.161,0,0.221,0.1,0,0.012,0.335,-0.16,0.25,0,0.141,0,0.012,0.173,0.195,-0.2,0.464,0.048
63829,20100311,-84.45,31.19,0.136,-0.19,0.048,0,0.136,0.01,0,0.12,0.134,-0.21,0.275,0,0.219,0.05,0,0,0.329,-0.23,0.365,0,0.136,-0.12,0.018,0.03,0.191,-0.33,0.605,0
63829,20100312,-84.45,31.19,0.142,-0.04,0.048,0.132,0.141,0.15,0,0.132,0.136,-0.14,0.275,0.12,0.223,0.22,0,0.12,0.324,-0.31,0.395,0,0.142,0.02,0.018,0.132,0.193,-0.22,0.617,0.126
63829,20100313,-84.45,31.19,0.148,0.1,0.048,0.275,0.146,0.31,0,0.275,0.14,-0.05,0.275,0.263,0.228,0.45,0,0.263,0.322,-0.32,0.395,0,0.147,0.17,0.018,0.275,0.197,-0.06,0.617,0.269
63829,20100314,-84.45,31.19,0.151,0.19,0.048,0.419,0.15,0.43,0,0.419,0.143,0.02,0.275,0.287,0.229,0.52,0,0.323,0.324,-0.27,0.395,0,0.151,0.28,0.018,0.419,0.199,0.07,0.581,0.413
63829,20100315,-84.45,31.19,0.153,0.26,0.048,0.467,0.153,0.52,0,0.563,0.145,0.09,0.275,0.287,0.23,0.56,0,0.323,0.326,-0.2,0.305,0,0.153,0.36,0.018,0.557,0.201,0.18,0.437,0.479
63829,20100316,-84.45,31.19,0.155,0.33,0.048,0.467,0.155,0.59,0,0.689,0.147,0.15,0.257,0.287,0.231,0.6,0,0.323,0.328,-0.13,0.228,0,0.155,0.43,0.018,0.563,0.203,0.28,0.293,0.479
63829,20100317,-84.45,31.19,0.156,0.39,0.018,0.467,0.156,0.66,0,0.689,0.148,0.2,0.114,0.287,0.231,0.63,0,0.323,0.33,-0.08,0.144,0,0.156,0.49,0.006,0.563,0.204,0.36,0.15,0.479
63829,20100318,-84.45,31.19,0.159,0.47,0,0.577,0.159,0.75,0,0.804,0.15,0.27,0,0.286,0.232,0.65,0,0.321,0.331,-0.04,0.03,0,0.159,0.58,0,0.673,0.206,0.47,0.012,0.476
63829,20100319,-84.45,31.19,0.153,0.35,0,0.506,0.153,0.62,0,0.815,0.147,0.23,0,0.167,0.228,0.48,0,0.202,0.332,-0.01,0,0,0.153,0.45,0,0.673,0.203,0.37,0,0.351
63829,20100320,-84.45,31.19,0.147,0.24,0,0.363,0.147,0.47,0,0.732,0.143,0.17,0,0.024,0.223,0.26,0,0.06,0.33,-0.02,0,0,0.147,0.32,0,0.53,0.198,0.22,0,0.208
63829,20100321,-84.45,31.19,0.143,0.18,0,0.22,0.143,0.37,0,0.589,0.14,0.12,0,0,0.222,0.21,0,0,0.328,-0.05,0,0,0.143,0.25,0,0.387,0.195,0.14,0,0.065
63829,20100322,-84.45,31.19,0.146,0.22,0,0.31,0.144,0.4,0,0.583,0.14,0.15,0,0.125,0.223,0.26,0,0.095,0.325,-0.09,0,0,0.145,0.29,0,0.387,0.196,0.16,0,0.131
63829,20100323,-84.45,31.19,0.147,0.25,0,0.452,0.145,0.44,0,0.601,0.141,0.18,0,0.185,0.224,0.3,0,0.143,0.322,-0.11,0,0,0.146,0.32,0,0.524,0.196,0.19,0,0.208
63829,20100324,-84.45,31.19,0.147,0.28,0,0.488,0.146,0.46,0,0.744,0.141,0.21,0,0.185,0.224,0.32,0,0.155,0.321,-0.13,0,0,0.146,0.34,0,0.613,0.196,0.21,0,0.208
63829,20100325,-84.45,31.19,0.145,0.26,0,0.375,0.144,0.44,0,0.732,0.14,0.2,0,0.185,0.224,0.34,0,0.161,0.32,-0.13,0,0,0.144,0.32,0,0.5,0.195,0.2,0,0.208
63829,20100326,-84.45,31.19,0.143,0.25,0,0.373,0.142,0.42,0,0.681,0.139,0.18,0,0.187,0.224,0.35,0,0.163,0.318,-0.14,0,0,0.143,0.31,0,0.446,0.193,0.18,0,0.211
63829,20100327,-84.45,31.19,0.143,0.26,0,0.386,0.141,0.42,0,0.729,0.138,0.18,0,0.187,0.225,0.37,0,0.163,0.317,-0.15,0,0,0.142,0.31,0,0.494,0.193,0.18,0,0.211
63829,20100328,-84.45,31.19,0.142,0.27,0,0.386,0.141,0.42,0,0.729,0.137,0.18,0,0.187,0.225,0.39,0,0.163,0.317,-0.15,0,0,0.141,0.32,0,0.494,0.192,0.19,0,0.211
63829,20100329,-84.45,31.19,0.136,0.2,0,0.247,0.135,0.33,0,0.59,0.133,0.12,0,0.06,0.223,0.33,0,0.078,0.316,-0.15,0,0,0.136,0.25,0,0.355,0.189,0.11,0,0.078
63829,20100330,-84.45,31.19,0.132,0.16,0,0.102,0.131,0.25,0,0.446,0.129,0.07,0,0,0.222,0.31,0,0.036,0.315,-0.15,0,0,0.131,0.19,0,0.211,0.186,0.05,0,0
63829,20100331,-84.45,31.19,0.128,0.12,0,0.066,0.127,0.2,0,0.301,0.126,0.03,0,0,0.221,0.3,0,0.024,0.314,-0.16,0,0,0.127,0.15,0,0.12,0.183,0,0,0
63829,20100401,-84.45,31.19,0.124,0.08,0,0.066,0.123,0.15,0,0.193,0.123,-0.01,0,0,0.221,0.29,0,0.018,0.313,-0.16,0,0,0.123,0.11,0,0.12,0.181,-0.04,0,0
63829,20100402,-84.45,31.19,0.118,0.02,0,0.012,0.119,0.08,0,0.107,0.12,-0.05,0,0,0.221,0.29,0,0.018,0.312,-0.17,0,0,0.119,0.05,0,0.048,0.178,-0.1,0,0
63829,20100403,-84.45,31.19,0.112,-0.05,0,0,0.114,0,0,0,0.117,-0.1,0,0,0.22,0.28,0,0.018,0.31,-0.18,0,0,0.113,-0.03,0,0,0.175,-0.17,0,0
63829,20100404,-84.45,31.19,0.105,-0.14,0,0,0.109,-0.07,0,0,0.114,-0.15,0,0,0.22,0.26,0,0.018,0.309,-0.18,0,0,0.107,-0.11,0,0,0.171,-0.25,0.095,0
63829,20100405,-84.45,31.19,0.097,-0.24,0.101,0,0.105,-0.16,0,0,0.111,-0.2,0,0,0.219,0.23,0,0.006,0.308,-0.19,0,0,0.101,-0.2,0.083,0,0.168,-0.33,0.238,0
63829,20100406,-84.45,31.19,0.089,-0.34,0.244,0,0.099,-0.25,0.101,0,0.108,-0.25,0.071,0,0.219,0.2,0,0,0.306,-0.2,0,0,0.094,-0.3,0.226,0,0.164,-0.42,0.381,0
63829,20100407,-84.45,31.19,0.08,-0.46,0.387,0,0.094,-0.36,0.244,0,0.105,-0.3,0.214,0,0.218,0.16,0,0,0.305,-0.21,0,0,0.087,-0.42,0.369,0,0.16,-0.52,0.524,0
63829,20100408,-84.45,31.19,0.071,-0.57,0.53,0,0.088,-0.46,0.387,0,0.101,-0.36,0.357,0,0.218,0.12,0,0,0.304,-0.22,0,0,0.079,-0.53,0.512,0,0.156,-0.62,0.667,0
63829,20100409,-84.45,31.19,0.076,-0.51,0.565,0.101,0.09,-0.43,0.429,0.089,0.103,-0.33,0.399,0.006,0.219,0.21,0,0.101,0.303,-0.24,0,0,0.083,-0.48,0.548,0.101,0.158,-0.57,0.708,0.077
63829,20100410,-84.45,31.19,0.082,-0.43,0.565,0.131,0.095,-0.34,0.429,0.143,0.106,-0.27,0.399,0.006,0.22,0.25,0,0.143,0.302,-0.26,0,0,0.089,-0.4,0.548,0.143,0.161,-0.49,0.708,0.077
63829,20100411,-84.45,31.19,0.088,-0.37,0.565,0.131,0.099,-0.28,0.429,0.143,0.109,-0.22,0.399,0.006,0.22,0.25,0,0.143,0.3,-0.29,0.048,0,0.093,-0.33,0.548,0.143,0.163,-0.44,0.613,0.077
63829,20100412,-84.45,31.19,0.093,-0.3,0.464,0.131,0.102,-0.22,0.429,0.143,0.111,-0.19,0.399,0.006,0.22,0.24,0,0.143,0.299,-0.31,0.161,0,0.098,-0.27,0.464,0.143,0.165,-0.39,0.47,0.077
63829,20100413,-84.45,31.19,0.098,-0.24,0.321,0.131,0.105,-0.17,0.327,0.143,0.113,-0.15,0.327,0.006,0.22,0.24,0,0.143,0.298,-0.33,0.292,0,0.102,-0.22,0.321,0.143,0.167,-0.34,0.393,0.077
63829,20100414,-84.45,31.19,0.103,-0.18,0.286,0.131,0.109,-0.12,0.196,0.143,0.115,-0.12,0.185,0.006,0.22,0.24,0,0.143,0.297,-0.36,0.423,0,0.106,-0.16,0.238,0.143,0.169,-0.29,0.393,0.077
63829,20100415,-84.45,31.19,0.108,-0.14,0.286,0.131,0.112,-0.07,0.19,0.143,0.117,-0.08,0.042,0.006,0.22,0.26,0,0.143,0.296,-0.37,0.53,0,0.11,-0.1,0.238,0.143,0.17,-0.25,0.393,0.077
63829,20100416,-84.45,31.19,0.098,-0.27,0.393,0.03,0.106,-0.17,0.292,0.054,0.113,-0.13,0.125,0,0.218,0.13,0,0.042,0.296,-0.38,0.571,0,0.102,-0.22,0.345,0.042,0.166,-0.35,0.494,0
63829,20100417,-84.45,31.19,0.087,-0.42,0.536,0,0.098,-0.31,0.435,0,0.108,-0.2,0.268,0,0.217,0.07,0,0,0.296,-0.38,0.583,0,0.092,-0.37,0.488,0,0.161,-0.48,0.637,0
63829,20100418,-84.45,31.19,0.077,-0.56,0.679,0,0.091,-0.45,0.577,0,0.103,-0.27,0.411,0,0.216,0.03,0,0,0.295,-0.37,0.536,0,0.084,-0.51,0.631,0,0.156,-0.58,0.78,0
63829,20100419,-84.45,31.19,0.067,-0.68,0.821,0,0.083,-0.58,0.72,0,0.098,-0.34,0.554,0,0.215,0.01,0,0,0.295,-0.36,0.423,0,0.075,-0.63,0.774,0,0.152,-0.68,0.923,0
63829,20100420,-84.45,31.19,0.059,-0.79,0.964,0,0.076,-0.71,0.863,0,0.094,-0.4,0.696,0,0.215,-0.02,0,0,0.295,-0.35,0.292,0,0.068,-0.75,0.917,0,0.148,-0.77,1,0
63829,20100421,-84.45,31.19,0.052,-0.88,1,0,0.07,-0.82,0.994,0,0.089,-0.47,0.839,0,0.214,-0.06,0,0,0.295,-0.33,0.161,0,0.061,-0.85,1,0,0.144,-0.84,1,0
63829,20100422,-84.45,31.19,0.045,-0.96,1,0,0.064,-0.93,1,0,0.083,-0.55,0.982,0,0.213,-0.11,0.018,0,0.295,-0.33,0.054,0,0.055,-0.94,1,0,0.14,-0.92,1,0
63829,20100423,-84.45,31.19,0.04,-1.02,1,0,0.058,-1.03,1,0,0.078,-0.63,1,0,0.212,-0.16,0.101,0,0.295,-0.32,0.012,0,0.049,-1.01,1,0,0.137,-0.98,1,0
63829,20100424,-84.45,31.19,0.037,-1.06,1,0,0.053,-1.11,1,0,0.072,-0.71,1,0,0.21,-0.21,0.244,0,0.295,-0.32,0,0,0.045,-1.07,1,0,0.133,-1.04,1,0
63829,20100425,-84.45,31.19,0.038,-1.02,0.964,0.018,0.05,-1.14,0.982,0.012,0.067,-0.77,0.994,0,0.209,-0.27,0.387,0,0.295,-0.32,0,0,0.044,-1.06,0.976,0.012,0.132,-1.05,0.988,0
63829,20100426,-84.45,31.19,0.052,-0.82,0.821,0.101,0.062,-0.92,0.839,0.155,0.075,-0.65,0.851,0,0.211,-0.18,0.393,0.054,0.294,-0.32,0,0,0.057,-0.85,0.833,0.143,0.139,-0.89,0.845,0.042
63829,20100427,-84.45,31.19,0.064,-0.65,0.679,0.101,0.072,-0.73,0.696,0.179,0.081,-0.54,0.708,0,0.211,-0.17,0.393,0.054,0.294,-0.32,0,0,0.068,-0.68,0.69,0.143,0.145,-0.75,0.702,0.042
63829,20100428,-84.45,31.19,0.075,-0.49,0.536,0.101,0.081,-0.55,0.554,0.179,0.088,-0.44,0.565,0,0.211,-0.16,0.393,0.054,0.294,-0.32,0.006,0,0.078,-0.51,0.548,0.143,0.15,-0.62,0.56,0.042
63829,20100429,-84.45,31.19,0.085,-0.34,0.393,0.101,0.089,-0.38,0.411,0.179,0.094,-0.33,0.423,0,0.211,-0.14,0.375,0.054,0.294,-0.32,0.006,0,0.087,-0.35,0.405,0.143,0.155,-0.5,0.417,0.042
63829,20100430,-84.45,31.19,0.094,-0.2,0.25,0.101,0.097,-0.22,0.268,0.179,0.101,-0.22,0.28,0,0.211,-0.12,0.292,0.054,0.294,-0.32,0.018,0,0.096,-0.2,0.262,0.143,0.159,-0.38,0.298,0.042
63829,20100501,-84.45,31.19,0.11,0.02,0.107,0.196,0.11,0.01,0.125,0.226,0.11,-0.06,0.137,0.036,0.213,-0.03,0.149,0.083,0.294,-0.32,0.042,0,0.11,0.02,0.119,0.196,0.167,-0.2,0.185,0.083
63829,20100502,-84.45,31.19,0.12,0.17,0,0.31,0.122,0.24,0,0.357,0.122,0.13,0,0.179,0.217,0.15,0.006,0.155,0.293,-0.32,0.077,0,0.121,0.2,0,0.327,0.175,-0.02,0.054,0.131
63829,20100503,-84.45,31.19,0.118,0.14,0,0.244,0.12,0.21,0,0.357,0.122,0.14,0,0.232,0.216,0.11,0,0.101,0.294,-0.31,0.077,0,0.119,0.17,0,0.25,0.174,-0.03,0.054,0.089
63829,20100504,-84.45,31.19,0.123,0.21,0,0.298,0.124,0.28,0,0.464,0.126,0.22,0,0.292,0.217,0.18,0,0.149,0.294,-0.3,0.077,0,0.123,0.24,0,0.31,0.177,0.05,0.054,0.143
63829,20100505,-84.45,31.19,0.134,0.36,0,0.44,0.133,0.44,0,0.607,0.135,0.37,0,0.435,0.221,0.37,0,0.292,0.303,-0.17,0.071,0.095,0.134,0.39,0,0.452,0.185,0.24,0.054,0.286
63829,20100506,-84.45,31.19,0.14,0.44,0,0.583,0.139,0.55,0,0.75,0.141,0.48,0,0.577,0.224,0.49,0,0.435,0.316,0.04,0.071,0.238,0.139,0.49,0,0.595,0.192,0.4,0.054,0.429
63829,20100507,-84.45,31.19,0.144,0.51,0,0.696,0.144,0.63,0,0.893,0.146,0.56,0,0.72,0.226,0.6,0,0.577,0.328,0.24,0.06,0.381,0.144,0.56,0,0.738,0.198,0.54,0.03,0.571
63829,20100508,-84.45,31.19,0.142,0.5,0,0.601,0.143,0.64,0,0.952,0.146,0.6,0,0.827,0.227,0.65,0,0.69,0.336,0.37,0.036,0.446,0.142,0.56,0,0.762,0.199,0.59,0,0.673
63829,20100509,-84.45,31.19,0.138,0.46,0,0.47,0.139,0.59,0,0.833,0.143,0.57,0,0.72,0.226,0.61,0,0.762,0.342,0.48,0,0.446,0.139,0.52,0,0.619,0.198,0.59,0,0.673
63829,20100510,-84.45,31.19,0.135,0.44,0,0.452,0.136,0.56,0,0.69,0.14,0.55,0,0.667,0.226,0.66,0,0.905,0.346,0.55,0,0.446,0.135,0.49,0,0.565,0.197,0.6,0,0.673
63829,20100511,-84.45,31.19,0.126,0.34,0,0.399,0.129,0.46,0,0.56,0.134,0.47,0,0.607,0.226,0.67,0,1,0.349,0.62,0,0.446,0.127,0.4,0,0.506,0.193,0.54,0,0.619
63829,20100512,-84.45,31.19,0.111,0.18,0,0.256,0.116,0.28,0,0.417,0.122,0.32,0,0.464,0.223,0.57,0,1,0.344,0.56,0,0.351,0.114,0.22,0,0.363,0.183,0.37,0,0.476
63829,20100513,-84.45,31.19,0.102,0.07,0,0.113,0.107,0.16,0,0.274,0.114,0.23,0,0.321,0.222,0.55,0,1,0.334,0.43,0,0.208,0.104,0.11,0,0.22,0.176,0.24,0,0.333
63829,20100514,-84.45,31.19,0.093,-0.02,0,0,0.099,0.06,0,0.131,0.108,0.14,0,0.179,0.221,0.54,0,1,0.324,0.3,0,0.065,0.096,0.01,0,0.077,0.169,0.13,0,0.19
63829,20100515,-84.45,31.19,0.084,-0.12,0,0,0.092,-0.04,0,0.024,0.102,0.08,0,0.036,0.22,0.53,0,1,0.319,0.23,0,0,0.088,-0.09,0,0,0.163,0.03,0,0.048
63829,20100516,-84.45,31.19,0.075,-0.21,0.107,0,0.085,-0.13,0,0,0.097,0.01,0,0,0.219,0.52,0,0.97,0.315,0.19,0,0,0.08,-0.18,0,0,0.158,-0.05,0,0
63829,20100517,-84.45,31.19,0.067,-0.3,0.25,0,0.079,-0.22,0.024,0,0.092,-0.05,0,0,0.218,0.5,0,0.935,0.312,0.16,0,0,0.073,-0.27,0.101,0,0.154,-0.13,0,0
63829,20100518,-84.45,31.19,0.061,-0.36,0.262,0,0.073,-0.29,0.042,0,0.087,-0.11,0,0,0.217,0.49,0,0.851,0.31,0.13,0,0,0.067,-0.34,0.101,0,0.15,-0.19,0,0
63829,20100519,-84.45,31.19,0.056,-0.41,0.262,0,0.068,-0.36,0.054,0,0.083,-0.17,0,0,0.216,0.48,0,0.738,0.308,0.11,0,0,0.062,-0.39,0.101,0,0.146,-0.25,0,0
63829,20100520,-84.45,31.19,0.052,-0.45,0.31,0,0.063,-0.42,0.119,0,0.079,-0.23,0.012,0,0.214,0.46,0,0.601,0.306,0.09,0,0,0.057,-0.44,0.113,0,0.143,-0.29,0,0
63829,20100521,-84.45,31.19,0.048,-0.49,0.452,0,0.058,-0.48,0.262,0,0.074,-0.29,0.131,0,0.213,0.43,0,0.458,0.304,0.06,0,0,0.053,-0.49,0.214,0,0.139,-0.34,0.012,0
63829,20100522,-84.45,31.19,0.045,-0.52,0.595,0,0.054,-0.53,0.405,0,0.069,-0.36,0.274,0,0.212,0.39,0,0.315,0.302,0.04,0,0,0.05,-0.53,0.357,0,0.136,-0.39,0.113,0
63829,20100523,-84.45,31.19,0.043,-0.55,0.631,0,0.051,-0.57,0.548,0,0.065,-0.42,0.417,0,0.21,0.36,0,0.208,0.301,0.02,0,0,0.047,-0.56,0.5,0,0.134,-0.43,0.256,0
63829,20100524,-84.45,31.19,0.041,-0.56,0.631,0,0.047,-0.62,0.667,0,0.06,-0.49,0.56,0,0.209,0.32,0,0.101,0.299,0,0,0,0.044,-0.59,0.542,0,0.131,-0.47,0.399,0
63829,20100525,-84.45,31.19,0.037,-0.6,0.762,0,0.043,-0.67,0.792,0,0.056,-0.56,0.702,0,0.207,0.27,0,0.042,0.297,-0.02,0,0,0.04,-0.63,0.685,0,0.128,-0.52,0.542,0
63829,20100526,-84.45,31.19,0.034,-0.63,0.905,0,0.039,-0.71,0.923,0,0.051,-0.62,0.845,0,0.205,0.22,0,0.012,0.296,-0.04,0,0,0.037,-0.67,0.827,0,0.125,-0.57,0.685,0
63829,20100527,-84.45,31.19,0.032,-0.66,1,0,0.035,-0.75,1,0,0.047,-0.68,0.976,0,0.204,0.16,0,0.006,0.295,-0.06,0,0,0.033,-0.7,0.958,0,0.122,-0.61,0.827,0
63829,20100528,-84.45,31.19,0.03,-0.69,1,0,0.032,-0.79,1,0,0.044,-0.73,1,0,0.202,0.1,0,0.006,0.293,-0.08,0,0,0.031,-0.73,1,0,0.12,-0.65,0.958,0
63829,20100529,-84.45,31.19,0.028,-0.71,1,0,0.03,-0.81,1,0,0.04,-0.77,1,0,0.2,0.04,0,0.006,0.292,-0.09,0,0,0.029,-0.75,1,0,0.118,-0.68,1,0
63829,20100530,-84.45,31.19,0.027,-0.73,1,0,0.027,-0.84,1,0,0.038,-0.81,1,0,0.198,-0.03,0,0,0.291,-0.1,0,0,0.027,-0.77,1,0,0.116,-0.71,1,0
63829,20100531,-84.45,31.19,0.026,-0.75,1,0,0.026,-0.85,1,0,0.036,-0.84,1,0,0.197,-0.1,0.042,0,0.291,-0.1,0,0,0.026,-0.78,1,0,0.115,-0.72,1,0
63829,20100601,-84.45,31.19,0.026,-0.77,1,0,0.026,-0.86,1,0,0.034,-0.86,1,0,0.195,-0.17,0.161,0,0.29,-0.11,0,0,0.026,-0.8,1,0,0.114,-0.74,1,0
63829,20100602,-84.45,31.19,0.026,-0.78,1,0,0.025,-0.88,1,0,0.033,-0.88,1,0,0.193,-0.25,0.299,0,0.289,-0.11,0,0,0.026,-0.81,1,0,0.113,-0.75,1,0
63829,20100603,-84.45,31.19,0.027,-0.79,1,0,0.025,-0.89,1,0,0.032,-0.9,1,0,0.192,-0.32,0.419,0,0.289,-0.12,0.006,0,0.026,-0.82,1,0,0.113,-0.75,1,0
63829,20100604,-84.45,31.19,0.027,-0.8,1,0,0.025,-0.9,1,0,0.031,-0.93,1,0,0.19,-0.4,0.563,0,0.288,-0.12,0.006,0,0.026,-0.83,1,0,0.112,-0.76,1,0
63829,20100605,-84.45,31.19,0.027,-0.8,1,0,0.025,-0.91,1,0,0.03,-0.97,1,0,0.188,-0.49,0.709,0,0.287,-0.12,0.006,0,0.026,-0.84,1,0,0.111,-0.76,1,0
63829,20100606,-84.45,31.19,0.028,-0.8,1,0,0.025,-0.92,1,0,0.029,-1.01,1,0,0.186,-0.58,0.861,0,0.287,-0.13,0.006,0,0.026,-0.84,1,0,0.111,-0.77,1,0
63829,20100607,-84.45,31.19,0.042,-0.64,0.886,0.108,0.038,-0.76,0.892,0.108,0.037,-0.92,0.899,0,0.187,-0.58,0.867,0,0.291,-0.07,0.006,0.101,0.04,-0.68,0.892,0.108,0.119,-0.63,0.892,0.108
63829,20100608,-84.45,31.19,0.056,-0.49,0.734,0.12,0.053,-0.56,0.741,0.171,0.049,-0.76,0.747,0,0.186,-0.61,0.88,0.006,0.299,0.03,0.006,0.253,0.054,-0.51,0.741,0.146,0.128,-0.48,0.741,0.146
63829,20100609,-84.45,31.19,0.066,-0.36,0.585,0.119,0.064,-0.41,0.591,0.17,0.059,-0.63,0.597,0,0.186,-0.63,0.862,0.006,0.307,0.13,0.006,0.403,0.065,-0.37,0.591,0.145,0.137,-0.34,0.591,0.145
63829,20100610,-84.45,31.19,0.073,-0.28,0.458,0.114,0.072,-0.31,0.464,0.163,0.066,-0.53,0.47,0,0.186,-0.64,0.849,0.006,0.311,0.18,0,0.446,0.073,-0.29,0.464,0.139,0.142,-0.25,0.464,0.139
63829,20100611,-84.45,31.19,0.079,-0.22,0.321,0.113,0.079,-0.22,0.327,0.161,0.073,-0.44,0.333,0,0.187,-0.62,0.804,0.006,0.311,0.18,0,0.44,0.079,-0.21,0.327,0.137,0.146,-0.19,0.327,0.137
63829,20100612,-84.45,31.19,0.085,-0.16,0.179,0.113,0.085,-0.16,0.232,0.161,0.08,-0.34,0.321,0,0.188,-0.58,0.756,0.006,0.311,0.18,0,0.44,0.085,-0.15,0.185,0.137,0.15,-0.14,0.185,0.137
63829,20100613,-84.45,31.19,0.088,-0.13,0.167,0.113,0.089,-0.12,0.232,0.161,0.085,-0.26,0.321,0,0.19,-0.56,0.696,0.006,0.31,0.17,0,0.44,0.088,-0.12,0.167,0.137,0.152,-0.1,0.137,0.137
63829,20100614,-84.45,31.19,0.077,-0.27,0.274,0.012,0.079,-0.27,0.333,0.06,0.081,-0.33,0.417,0,0.189,-0.6,0.738,0.006,0.304,0.09,0,0.345,0.078,-0.27,0.268,0.036,0.146,-0.21,0.238,0.036
63829,20100615,-84.45,31.19,0.065,-0.42,0.417,0,0.066,-0.46,0.476,0,0.071,-0.47,0.56,0,0.188,-0.64,0.75,0,0.295,-0.03,0,0.202,0.066,-0.44,0.411,0,0.137,-0.37,0.381,0
63829,20100616,-84.45,31.19,0.055,-0.56,0.56,0,0.055,-0.63,0.619,0,0.061,-0.62,0.702,0,0.186,-0.72,0.768,0,0.286,-0.14,0,0.06,0.055,-0.59,0.554,0,0.129,-0.52,0.524,0
63829,20100617,-84.45,31.19,0.049,-0.65,0.702,0,0.046,-0.78,0.762,0,0.052,-0.77,0.845,0,0.184,-0.81,0.786,0,0.279,-0.23,0,0,0.047,-0.72,0.696,0,0.122,-0.65,0.667,0
63829,20100618,-84.45,31.19,0.046,-0.71,0.845,0,0.039,-0.91,0.905,0,0.044,-0.9,0.988,0,0.181,-0.93,0.833,0,0.277,-0.26,0,0,0.042,-0.82,0.839,0,0.117,-0.75,0.81,0
63829,20100619,-84.45,31.19,0.043,-0.78,0.988,0,0.033,-1.01,1,0,0.038,-1,1,0,0.178,-1.06,0.887,0,0.276,-0.29,0,0,0.038,-0.91,0.982,0,0.113,-0.84,0.952,0
63829,20100620,-84.45,31.19,0.04,-0.84,1,0,0.029,-1.09,1,0,0.032,-1.08,1,0,0.175,-1.19,0.946,0,0.275,-0.3,0,0,0.035,-0.98,1,0,0.11,-0.91,1,0
63829,20100621,-84.45,31.19,0.04,-0.85,0.993,0,0.027,-1.13,1,0,0.029,-1.14,1,0,0.173,-1.29,1,0,0.274,-0.32,0,0,0.034,-1.01,0.993,0,0.109,-0.95,1,0